Location: Ahausen
(50.4985°N, 8.2722°E)
Time: 18:57:06
(UTC+00:00)

Cosmos 1092 Rocket - Pass Details

Date: 18 September 2020
Orbit: 954 x 995 km, 82.9° (Epoch: 22 October)

Event Time Altitude Azimuth Distance (km) Brightness Sun altitude
Rises 19:48:02 0° 349° (N) 3,646 7.6 -21.2°
Reaches altitude 10° 19:50:32 10° 349° (N) 2,697 6.9 -21.5°
Maximum altitude 19:56:42 82° 264° (W) 974 4.0 -22.4°
Enters shadow 20:00:16 27° 178° (S) 1,753 5.0 -22.8°
